Location: Kapuskasing
(49.3803°N, 82.4001°W)
Time: 11:25:12
(UTC-04:00)

RS-44 - Pass Details

Date: 16 March 2026
Orbit: 1175 x 1510 km, 82.5° (Epoch: 11 April)

Event Time Altitude Azimuth Distance (km) Brightness Sun altitude
Rises 01:23:08 0° 353° (N) 4,366 ? -42.2°
Reaches altitude 10° 01:27:22 10° 14° (NNE) 3,457 ? -42.3°
Maximum altitude 01:32:14 16° 51° (NE) 3,050 ? -42.3°
Enters shadow 01:36:52 11° 85° (E) 3,513 ? -42.3°
